#timestamp,LO_Frequency,Hit,StdDev 
1644195615.5,286047000.0,N
1644195635.4,286046999.2,N
1644195655.2,286046996.7,N
1644195675.0,286046995.0,Y
1644195675.9,286046995.0,P
1644195695.8,286047000.8,N
1644195715.6,286047011.9,P
1644195735.4,286046996.8,N
1644195755.3,286046997.1,N
1644195775.1,286046997.7,N
1644195795.9,286046999.6,N
1644195815.7,286047000.6,N
1644195835.5,286046999.1,N
1644195855.4,286046999.4,N
1644195875.2,286046996.9,N
1644195895.1,286046999.3,N
1644195896.0,286046999.3,N
1644195915.8,286046996.5,N
1644195935.6,286046997.7,N
1644195955.5,286046996.8,N
1644195975.3,286046995.3,N
1644195995.2,286046994.5,N
1644196015.9,286046994.1,N
1644196035.7,286046996.4,N
1644196055.6,286046994.9,N
1644196075.4,286047001.2,N
1644196095.2,286046998.7,N
1644196115.1,286046998.7,N
1644196116.0,286046998.7,N
1644196135.8,286046998.4,N
1644196155.7,286047001.6,N
1644196175.5,286047001.6,N
1644196195.3,286047002.7,N
1644196215.2,286047002.3,N
1644196235.0,286047000.2,N
1644196235.9,286047000.2,N
1644196255.7,286047000.1,N
1644196275.6,286047002.5,N
1644196295.4,286047001.4,N
1644196315.3,286047002.7,N
1644196335.1,286047000.2,N
1644196336.0,286047000.2,N
1644196355.8,286046999.7,N
1644196375.7,286047002.4,N
1644196395.5,286046999.9,N
1644196415.3,286047004.3,N
1644196435.2,286047002.8,N
1644196455.0,286046998.8,N
1644196455.9,286046998.8,N
1644196475.8,286046997.5,N
1644196495.6,286046996.0,N
1644196515.4,286046997.1,N
1644196535.3,286047003.5,N
1644196555.1,286047003.8,N
1644196575.9,286047003.8,N
1644196595.7,286047001.9,N
1644196615.5,286046999.9,N
1644196635.4,286046999.7,N
1644196655.2,286047000.4,N
1644196675.0,286047002.3,N
1644196675.9,286047002.3,N
1644196695.8,286047001.6,N
1644196715.6,286047002.2,N
1644196735.5,286047001.3,N
1644196755.3,286047004.2,N
1644196775.1,286047003.1,N
1644196795.9,286047008.3,Y
1644196815.7,286047007.0,P
1644196835.5,286047003.0,N
1644196855.4,286047002.0,N
1644196875.2,286046998.7,N
1644196895.1,286046999.2,N
1644196896.0,286046999.2,N
1644196915.8,286046996.9,N
1644196935.6,286046996.6,N
1644196955.5,286046999.4,N
1644196975.3,286046998.3,N
1644196995.2,286046997.9,N
1644197015.9,286046996.2,N
1644197035.7,286046997.0,N
1644197055.6,286046997.1,N
1644197075.4,286046998.9,N
1644197095.2,286047002.6,N
1644197115.1,286047002.2,N
1644197116.0,286047002.2,N
1644197135.8,286046998.1,N
1644197155.7,286046996.9,N
1644197175.5,286046998.6,N
1644197195.3,286046999.5,N
1644197215.2,286046998.5,N
1644197235.0,286047002.8,N
1644197235.9,286047002.8,N
1644197255.7,286047002.7,N
1644197275.6,286047002.4,N
1644197295.4,286047001.9,N
1644197315.3,286047004.3,N
1644197335.1,286047003.3,N
1644197336.0,286047003.3,N
1644197355.8,286047004.1,N
1644197375.7,286047002.8,N
1644197395.5,286047001.9,N
1644197415.4,286047004.3,N
1644197435.2,286047002.0,N
1644197455.0,286047005.6,N
1644197455.9,286047005.6,N
1644197505.8,286047004.9,E
1644197515.7,286047004.1,N
1644197535.6,286047002.7,P
1644197555.4,286047002.2,P
1644197575.2,286046996.6,Y
1644197595.1,286046993.7,P
1644197596.0,286046993.7,N
1644197615.8,286046997.7,N
1644197635.7,286046994.9,N
1644197655.5,286046995.3,N
1644197675.3,286046996.5,N
1644197695.2,286046997.0,N
1644197715.9,286046995.7,N
1644197735.7,286046994.2,N
1644197755.6,286046996.1,N
1644197775.4,286046995.5,N
1644197795.2,286046995.0,N
1644197815.1,286046996.4,N
1644197816.0,286046996.4,N
1644197835.8,286046996.4,N
1644197855.7,286046997.8,N
1644197875.5,286046999.1,N
1644197895.3,286046999.1,N
1644197915.2,286046997.8,N
1644197935.0,286046993.9,N
1644197935.9,286046993.9,N
1644197955.8,286046993.5,Y
1644197975.6,286046998.9,P
1644197995.4,286046998.3,N
1644198015.3,286046998.8,N
1644198035.1,286047000.7,N
1644198036.0,286047000.7,N
1644198055.8,286046998.2,N
1644198075.7,286047000.4,N
1644198095.5,286047000.7,N
1644198115.3,286047001.0,N
1644198135.2,286047002.7,N
1644198155.0,286047002.0,N
1644198155.9,286047002.0,N
1644198175.8,286047000.7,N
1644198195.6,286046998.3,N
1644198215.4,286046999.6,N
1644198235.3,286046996.5,N
1644198255.1,286047000.9,N
1644198275.8,286046998.4,N
1644198295.7,286046999.2,N
1644198315.5,286046999.3,N
1644198335.4,286047000.8,N
1644198355.2,286046999.9,N
1644198375.0,286046997.6,N
1644198375.9,286046997.6,N
1644198395.8,286046997.8,N
1644198415.6,286046998.6,N
1644198435.4,286046998.2,N
1644198455.3,286046998.4,N
1644198475.1,286047000.8,N
1644198495.9,286047001.2,N
1644198515.7,286047000.2,N
1644198535.5,286047000.4,N
1644198555.4,286047000.1,N
1644198575.2,286047002.8,N
1644198595.0,286047002.4,N
1644198595.9,286047002.4,N
1644198615.8,286047002.7,N
1644198635.6,286046999.7,N
1644198655.5,286046999.9,N
1644198675.3,286047001.2,N
1644198695.1,286047000.5,N
1644198715.9,286046999.7,N
1644198735.7,286047001.6,N
1644198755.5,286047002.4,N
1644198775.4,286046999.8,N
1644198795.2,286047001.0,N
1644198815.1,286046998.3,N
1644198816.0,286046998.3,N
1644198835.8,286047000.8,N
1644198855.6,286046998.1,N
1644198875.5,286046998.9,N
1644198895.3,286046998.1,N
1644198915.1,286046999.4,N
1644198935.9,286046998.9,N
1644198955.7,286047000.4,N
1644198975.6,286047000.0,N
1644198995.4,286046998.4,N
1644199015.2,286047000.7,N
1644199035.1,286046998.4,N
1644199036.0,286046998.4,N
1644199055.8,286046998.6,N
1644199075.6,286046996.9,N
1644199095.5,286046998.9,N
1644199115.3,286046999.3,N
1644199135.2,286046998.6,N
1644199155.9,286046998.5,N
1644199175.7,286046998.7,N
1644199195.6,286046999.5,N
